Noyes, MN (56740)

7:09 PM CDT on September 03, 2015 (GMT -0500)
Hallock Municipal | | Change Station
CLOSE
Current Station
Airport
Location: Hallock,
Elevation: 820 ft
Nearby Weather Stations

Elev 820 ft 48.75 °N, 96.94 °W | Updated 15 minutes ago

Clear
Clear
90 °F
Feels Like 95 °F
N
21
Wind Variable Wind from SSE
Gusts 26 mph

Today
High -- | Low -- °F
--% Chance of Precip.
Yesterday
High -- | Low -- °F
Precip. -- in
6:47 AM 8:07 PM
Waning Gibbous, 65% visible
Pressure 29.69 in
Visibility 10.0 miles
Clouds Clear
Heat Index 95 °F
Dew Point 70 °F
Humidity 52%
Rainfall 0.00 in
Snow Depth Not available.
UV 1 out of 12
Pollen 11.70 out of 12
Air Quality Not available.
Flu Activity Not available.
METAR KHCO 032354Z AUTO 15018G23KT 10SM CLR 32/21 A2969 RMK AO2
Pressure 29.69 in
Visibility 10.0 miles
Clouds Clear
Heat Index 95 °F
Dew Point 70 °F
Humidity 52%
Rainfall 0.00 in
Snow Depth Not available.
UV 1 out of 12
Pollen 11.70 out of 12
Air Quality Not available.
Flu Activity Not available.
METAR KHCO 032354Z AUTO 15018G23KT 10SM CLR 32/21 A2969 RMK AO2

10-Day Weather Forecast

×

Almanac

Astronomy

Sep. 03, 2015 Rise Set
Actual Time
Civil Twilight
Nautical Twilight
Astronomical Twilight
Moon
Length of Visible Light
Length of Day
Tomorrow will be .
, % of the Moon is Illuminated

Today's Extremes

State Highs State Lows

Community

WunderPhotos

Upload Photos

1,852,069 photos uploaded!

WunderBlogs® & News

Nearby

Air Quality

  Air Quality AQ Index Pollutant
Not available.

Snow Depth

Station Depth Elevation

Earthquake Activity

City Distance Mag. Time & Date
Minimum magnitude displayed is 2.5.

Coastal Water Temperatures

Place Temperature

Stations

Nearby Weather Stations

Station Location Temp. Windchill Dew Point Humidity Wind Precip. Elev Updated Type